Flag for Norway Weather past 2 weeks in Kleppestø, Norway

Now
58 °F

Overcast.


Feels Like: 58 °F
Forecast: 61 / 69 °F
Wind: 3 mph from Southeast

Location: Bergen / Florida

Current Time: Aug 1, 2014 at 8:46:30 AM

Latest Report: Aug 1, 2014 at 8:00 AM


Visibility: 17 mi

Pressure: 29.74 "Hg

Humidity: 88%

Dew point: 54 °F

Location of KleppestøLocation

Historic Weather in Kleppestø — Graph

°F

Kleppestø temperature yesterday

Maximum temperature yesterday: 63 °F (at 2:00 PM)
Minimum temperature yesterday: 56 °F (at 11:00 PM)
Average temperature yesterday: 59 °F

Past Weeks' High & Low Weather Summary

 TemperatureHumidityPressure
High87 °F (Jul 24, 5:00 PM)89% (Aug 1, 6:00 AM)30.34 "Hg (Aug 1, 6:00 AM)
Low56 °F (Aug 1, 5:00 AM)26% (Jul 21, 12:00 PM)29.64 "Hg (Jul 31, 5:00 AM)
Average68 °F67%30.02 "Hg
* Reported Jul 17 7:00 AM — Aug 1 7:00 AM, Kleppestø, Weather by CustomWeather, © 2014

Note: Actual official high and low records may vary slightly from our data, if they occured in-between our weather recording intervals... More about our weather records

Advertising

Kleppestø weather history for previous 24 hours

 ConditionsComfort  
Time TempWeatherWind HumidityBarometerVisibility
7:00 AM
Aug 1
56 °FCool.3 mph89%29.73 "HgN/A
6:00 AM56 °FCool.1 mph89%29.72 "HgN/A
5:00 AM56 °FCool.2 mph88%29.72 "HgN/A
4:00 AM56 °FCool.1 mph88%29.72 "HgN/A
3:00 AM56 °FCool.2 mph88%29.71 "HgN/A
2:00 AM56 °FCool.1 mph88%29.72 "HgN/A
1:00 AM56 °FCool.3 mph88%29.72 "HgN/A
12:00 AM56 °FCool.3 mph87%29.72 "HgN/A
11:00 PM
Jul 31
56 °FPassing clouds.2 mph86%29.72 "Hg25 mi
10:00 PM57 °FCool.1 mph86%29.72 "HgN/A
9:00 PM58 °FCool.3 mph86%29.72 "HgN/A
8:00 PM59 °FPartly sunny.2 mph86%29.72 "Hg19 mi
7:00 PM59 °FCool.2 mph86%29.72 "HgN/A
6:00 PM58 °FCool.6 mph81%29.73 "HgN/A
5:00 PM59 °FSprinkles. Overcast.2 mph81%29.72 "Hg19 mi
4:00 PM60 °FCool.5 mph75%29.72 "HgN/A
3:00 PM63 °FMild.5 mph61%29.71 "HgN/A
2:00 PM63 °FPartly sunny.3 mph64%29.71 "Hg25 mi
1:00 PM61 °FCool.3 mph79%29.70 "HgN/A
12:00 PM60 °FCool.5 mph77%29.69 "HgN/A
11:00 AM61 °FOvercast.2 mph82%29.68 "Hg19 mi
10:00 AM59 °FCool.3 mph82%29.67 "HgN/A
9:00 AM58 °FCool.2 mph83%29.66 "HgN/A
8:00 AM58 °FPartly sunny.2 mph86%29.65 "Hg19 mi
Weather by CustomWeather, © 2014

See weather overviewHow to use our weather pages